#timestamp,LO_Frequency,Hit,StdDev 
1662426015.1,286047000.3,N
1662426016.0,286047000.3,N
1662426035.8,286046998.4,N
1662426055.7,286046998.1,N
1662426075.5,286046997.0,N
1662426095.4,286046996.5,N
1662426115.2,286046999.3,N
1662426135.0,286046996.7,N
1662426135.9,286046996.7,N
1662426155.8,286046996.5,N
1662426175.6,286046999.2,N
1662426195.4,286046996.5,N
1662426215.3,286046998.7,N
1662426235.1,286046998.4,N
1662426255.9,286046996.5,N
1662426275.7,286046999.1,N
1662426295.5,286046997.4,N
1662426315.4,286046997.1,N
1662426335.2,286046997.9,N
1662426355.0,286046996.6,N
1662426356.0,286046996.6,N
1662426375.8,286046996.6,N
1662426395.6,286046998.7,N
1662426415.5,286046998.8,N
1662426435.3,286046998.9,N
1662426455.1,286046998.5,N
1662426475.9,286046996.6,N
1662426495.7,286046999.6,N
1662426515.5,286046999.2,N
1662426535.4,286046998.6,N
1662426555.2,286046998.6,N
1662426575.1,286046996.7,N
1662426576.0,286046996.7,Y
1662426595.8,286047000.7,P
1662426615.6,286047000.5,N
1662426635.5,286047000.8,N
1662426655.3,286047000.1,N
1662426675.2,286047000.2,N
1662426695.9,286047000.6,N
1662426715.7,286047001.2,N
1662426735.6,286046998.2,N
1662426755.4,286046998.1,N
1662426775.2,286047000.7,N
1662426795.1,286047000.7,N
1662426796.0,286047000.7,N
1662426815.8,286047001.2,N
1662426835.7,286046998.4,N
1662426855.5,286047000.7,N
1662426875.3,286047000.9,N
1662426895.2,286047001.0,N
1662426915.0,286046998.5,N
1662426915.9,286046998.5,N
1662426935.7,286046998.9,N
1662426955.6,286046999.4,N
1662426975.4,286046997.4,N
1662426995.3,286046999.4,N
1662427015.1,286046998.8,N
1662427016.0,286046998.8,N
1662427035.8,286046998.7,N
1662427055.7,286046999.3,N
1662427075.5,286046998.6,N
1662427095.3,286046998.8,N
1662427115.2,286046999.0,N
1662427135.0,286046999.5,N
1662427135.9,286046999.5,N
1662427155.8,286046999.1,N
1662427175.6,286046999.2,N
1662427195.4,286046998.4,N
1662427215.3,286046998.5,N
1662427235.1,286047000.6,N
1662427255.9,286047000.5,N
1662427275.7,286047002.7,N
1662427295.5,286047002.1,N
1662427315.4,286047004.3,Y
1662427335.2,286047003.6,P
1662427355.0,286047003.7,N
1662427355.9,286047003.7,N
1662427375.8,286047006.0,Y
1662427395.6,286047002.7,P
1662427415.5,286047002.8,P
1662427435.3,286047002.5,P
1662427455.1,286047002.5,Y
1662427475.9,286046998.5,P
1662427495.7,286046998.7,N
1662427515.6,286047001.1,N
1662427535.4,286047001.1,N
1662427555.2,286046999.0,N
1662427575.1,286047001.2,N
1662427576.0,286047001.2,N
1662427595.8,286046998.6,N
1662427615.6,286046998.1,N
1662427635.5,286047000.4,N
1662427655.3,286046999.7,N
1662427675.2,286047000.7,N
1662427695.9,286046999.1,N
1662427715.7,286046998.3,N
1662427735.6,286046998.9,N
1662427755.4,286046996.6,N
1662427775.2,286046997.3,N
1662427795.1,286046998.6,N
1662427796.0,286046998.6,N
1662427815.8,286047000.5,N
1662427835.7,286046998.8,N
1662427855.5,286046998.8,N
1662427875.3,286046998.2,N
1662427895.2,286046998.2,N
1662427915.0,286047000.9,N
1662427915.9,286047000.9,N
1662427935.8,286047002.8,N
1662427955.6,286047002.1,N
1662427975.4,286047002.2,N
1662427995.3,286047002.4,N
1662428015.1,286047002.8,N
1662428035.9,286047002.7,N
1662428055.7,286047002.4,N
1662428075.5,286047002.6,N
1662428095.4,286047000.6,N
1662428115.2,286047001.0,N
1662428135.0,286047000.6,N
1662428135.9,286047000.6,N
1662428155.8,286047000.2,N
1662428175.6,286047000.4,N
1662428195.5,286047002.8,N
1662428215.3,286047000.2,N
1662428235.1,286047002.1,N
1662428255.9,286047002.3,N
1662428275.7,286047002.6,N
1662428295.5,286047001.9,N
1662428315.4,286047002.5,N
1662428335.2,286047002.6,N
1662428355.1,286047002.6,N
1662428356.0,286047002.6,N
1662428375.8,286047002.5,N
1662428395.6,286047001.6,N
1662428415.5,286047002.2,N
1662428435.3,286047001.6,N
1662428455.2,286047004.1,Y
1662428475.9,286047002.2,P
1662428495.7,286047001.6,P
1662428515.6,286047001.6,P
1662428535.4,286047004.2,Y
1662428555.3,286046998.6,P
1662428575.1,286047001.1,N
1662428595.8,286047001.1,N
1662428615.7,286046999.0,N
1662428635.5,286046998.6,N
1662428655.4,286046997.7,N
1662428675.2,286046997.9,N
1662428695.0,286046997.4,N
1662428696.0,286046997.4,N
1662428715.8,286046996.8,N
1662428735.6,286046997.5,N
1662428755.5,286046997.8,N
1662428775.3,286046999.0,N
1662428795.1,286046996.8,N
1662428815.9,286046998.4,N
1662428835.7,286046998.9,N
1662428855.6,286046998.7,N
1662428875.4,286046999.1,N
1662428895.2,286046997.7,N
1662428915.1,286046999.2,N
1662428916.0,286046999.2,N
1662428935.8,286046997.3,N
1662428955.7,286046996.9,N
1662428975.5,286046996.6,N
1662428995.3,286046999.5,N
1662429015.2,286046998.6,N
1662429035.0,286046998.6,N
1662429035.9,286046998.6,N
1662429055.7,286047000.4,N
1662429075.6,286046999.7,N
1662429095.4,286046999.9,N
1662429115.3,286046999.8,N
1662429135.1,286047001.0,N
1662429155.8,286047000.3,N
1662429175.7,286047000.2,N
1662429195.5,286047000.2,N
1662429215.4,286047002.8,N
1662429235.2,286047002.6,N
1662429255.0,286047002.3,N
1662429255.9,286047002.3,N
1662429275.8,286047002.1,N
1662429295.6,286047001.4,N
1662429315.4,286047001.4,N
1662429335.3,286047002.7,N
1662429355.1,286047002.6,N
1662429375.9,286046999.7,N
1662429395.7,286046999.8,N
1662429415.5,286047002.4,N
1662429435.4,286046999.8,N
1662429455.2,286047000.1,N
1662429475.1,286047002.7,N
1662429476.0,286047002.7,N
1662429495.8,286046999.9,N
1662429515.6,286047002.5,N
1662429535.5,286047001.5,N
1662429555.3,286047001.6,N
1662429575.2,286047002.0,N
1662429595.9,286047002.2,N
